Theta_e
293 293 292 292 292 292 291 291 291 291 291 292 293 293 293 293 293 294 294 301 306 309 312 318 319 318 318 318 319 323 327 325 323 322 322 322 322 322 321 321 322 322 322
293 292 292 291 291 291 290 290 290 290 290 291 292 293 293 293 294 294 294 294 305 308 311 317 317 321 322 322 319 319 321 321 319 317 317 317 318 318 318 318 318 318 318
293 292 291 290 290 290 290 290 290 290 289 291 290 291 292 292 293 293 294 294 297 305 311 313 315 317 318 319 319 320 319 318 317 315 314 314 315 315 315 315 315 315 315
293 291 291 290 290 290 289 289 288 288 288 288 288 289 290 291 292 292 292 294 296 300 302 309 311 312 313 315 317 317 317 316 315 314 313 313 311 311 312 312 313 313 314
293 291 290 290 290 289 288 289 288 288 287 287 288 289 289 289 290 293 292 293 294 297 296 304 304 305 309 311 312 312 315 314 313 311 311 309 309 309 310 310 310 311 312
292 290 290 290 290 288 288 287 287 287 287 286 289 289 288 289 289 289 290 294 295 295 294 294 293 295 305 307 308 309 312 313 310 309 308 308 308 308 308 309 309 309 310
292 290 289 289 289 288 287 287 287 286 286 286 286 286 287 289 289 290 290 291 293 293 292 292 292 291 293 304 306 308 309 309 309 308 307 307 307 308 308 308 309 309 309
291 290 289 289 288 287 287 287 287 285 286 286 285 284 283 286 289 289 289 290 289 290 290 290 290 291 290 292 297 304 305 305 305 304 305 305 306 307 308 308 309 310 309
291 290 289 288 288 287 286 286 286 286 284 285 286 285 282 282 283 287 287 288 288 288 287 289 289 290 289 289 293 295 298 299 301 302 303 303 304 305 307 308 309 310 310
290 290 289 288 287 287 286 286 287 286 286 284 285 288 285 284 283 283 285 285 286 287 286 284 285 288 288 287 291 294 295 296 297 299 300 301 302 304 306 308 309 309 309
289 289 288 287 287 287 286 286 285 285 285 284 284 284 283 283 283 283 282 282 283 282 280 282 281 282 286 286 285 288 292 294 296 297 298 298 300 302 304 305 307 308 308
287 287 287 286 286 285 285 285 285 284 284 283 284 283 283 282 282 282 281 281 280 282 280 283 284 287 287 286 288 289 291 292 293 295 297 297 298 300 302 303 305 305 306
284 286 286 285 285 285 285 284 284 284 283 283 283 282 282 282 283 283 281 279 278 277 278 277 281 287 289 288 289 290 289 291 292 292 295 296 297 299 300 300 302 303 303
287 286 285 285 284 284 284 284 283 283 283 282 282 279 279 279 281 281 280 278 274 275 274 278 282 286 285 288 288 289 286 289 291 292 293 295 296 297 298 298 300 300 300
285 285 284 283 283 283 282 282 280 279 280 280 279 279 279 279 281 283 283 279 278 275 279 275 282 286 283 286 286 286 283 286 290 291 292 293 295 296 296 297 298 297 298
285 284 282 281 280 280 280 279 277 276 279 278 279 280 280 284 285 285 285 285 284 278 278 272 284 284 285 286 285 285 283 286 288 289 290 291 293 294 295 295 296 296 296
283 282 281 279 278 277 277 277 278 279 280 280 281 280 281 284 283 284 284 284 283 283 280 280 272 275 279 283 284 283 280 280 279 287 289 291 292 293 293 294 294 294 295
281 281 280 279 278 278 278 279 278 278 278 278 278 279 280 283 283 283 283 282 282 283 281 280 282 280 281 280 276 273 280 281 279 285 289 289 291 293 292 293 293 293 293
281 281 280 280 280 279 278 278 278 278 277 278 278 278 279 281 282 282 282 282 282 283 282 281 280 282 282 281 278 275 276 277 281 285 288 288 289 292 291 291 292 292 293
280 280 280 280 280 280 280 279 279 278 278 279 280 281 282 282 281 282 282 282 282 282 282 281 281 281 281 281 278 275 276 276 278 281 283 284 286 289 290 289 288 289 292
280 279 279 279 280 280 280 280 280 279 279 279 280 281 281 282 284 283 282 282 282 281 280 280 279 280 280 279 277 272 273 274 275 275 275 276 277 278 278 284 284 286 289
278 278 278 279 279 280 283 284 282 280 280 279 279 280 281 282 283 285 286 285 283 281 279 279 278 278 279 279 274 271 269 269 271 273 272 275 275 276 277 277 284 287 290
276 277 276 277 277 277 283 284 284 281 280 279 280 281 281 282 282 282 284 286 286 285 284 280 278 277 274 276 274 271 269 268 270 272 271 271 272 273 276 278 285 287 289
276 275 275 276 277 278 282 283 284 282 281 281 281 281 281 281 281 281 281 281 281 281 283 283 280 279 277 276 275 274 271 268 268 270 270 271 269 271 272 274 284 288 289
275 275 276 276 276 277 281 282 282 281 281 281 282 281 281 281 282 284 280 279 279 279 282 284 285 285 285 284 282 274 275 276 274 269 269 269 270 270 270 271 273 282 286
275 276 277 277 277 277 280 282 283 281 280 280 281 281 282 282 283 284 281 279 277 278 278 278 276 280 283 282 286 283 279 277 277 270 271 271 268 269 270 270 270 270 273
Wind_Speed
4 4 4 3 3 3 3 3 3 3 4 4 3 3 4 3 3 1 2 6 7 8 10 10 6 5 4 3 2 2 6 11 13 13 13 12 11 10 7 7 6 6 6
4 4 4 3 3 2 2 3 2 2 2 2 3 3 3 3 4 3 2 3 6 8 9 9 6 10 10 8 3 3 2 4 7 9 10 9 9 9 9 8 7 6 6
5 5 4 4 3 3 4 3 2 2 3 3 3 4 3 3 3 3 3 1 3 6 8 6 7 8 7 7 8 9 9 9 10 8 7 7 7 7 6 6 5 5 4
6 5 4 3 4 4 3 2 2 2 2 2 2 3 2 3 4 4 2 1 0 2 4 6 8 9 8 6 8 7 7 7 7 8 7 7 6 4 3 3 4 4 5
6 5 4 4 5 4 3 2 1 2 1 2 3 3 3 3 3 2 3 2 0 2 2 6 9 9 8 8 6 4 8 8 7 7 6 5 5 5 4 4 3 3 4
7 5 4 5 5 4 3 2 2 0 1 1 2 4 3 2 2 2 2 1 1 3 3 4 4 4 8 6 4 4 4 7 6 6 6 6 6 5 5 5 4 3 3
7 7 5 5 4 4 4 4 3 1 2 2 2 2 2 3 4 3 2 2 2 3 3 3 2 2 3 6 6 4 4 6 6 5 5 6 7 7 7 6 6 4 5
9 7 7 6 6 4 5 4 3 2 1 1 3 1 3 3 3 4 3 3 3 2 3 3 3 4 3 3 3 6 7 7 5 5 6 6 6 7 7 7 7 7 5
9 7 8 7 6 5 4 4 4 4 2 1 2 2 1 3 2 3 3 2 3 1 1 3 3 4 3 3 5 6 5 4 5 6 7 7 8 7 8 8 7 7 6
8 7 7 7 6 4 5 4 4 3 3 3 0 1 0 2 2 2 2 1 1 1 2 0 2 3 3 2 4 4 4 5 6 7 6 7 8 8 9 8 7 5 5
8 8 8 7 6 4 5 6 5 4 3 3 3 2 1 1 1 2 3 3 2 1 2 2 3 3 3 2 1 2 4 5 6 7 7 7 9 9 9 9 8 6 5
5 6 7 6 6 5 6 5 5 6 5 3 2 3 3 3 3 2 2 2 1 3 2 2 3 3 4 3 2 2 5 7 6 7 8 9 10 10 10 9 10 8 6
4 7 7 7 5 5 5 5 5 5 5 4 4 3 2 2 3 2 2 0 1 3 3 2 1 2 3 4 3 2 4 8 7 8 8 9 11 11 9 9 9 9 7
9 10 8 7 7 7 6 5 3 3 5 4 5 2 2 2 2 2 3 3 1 2 2 4 1 1 0 2 3 1 2 8 9 8 8 10 9 10 9 9 8 8 7
8 11 10 9 7 6 6 6 4 4 4 4 4 4 2 2 2 2 2 2 4 3 3 3 1 0 1 1 1 3 1 7 10 9 9 8 9 9 10 8 8 7 6
10 11 9 8 7 6 6 6 4 3 5 3 3 5 3 2 2 2 2 2 1 2 3 2 0 1 2 2 1 2 3 7 10 9 9 9 8 8 9 8 7 6 5
9 9 9 8 7 7 6 5 5 6 6 5 3 5 5 4 3 3 2 2 2 3 5 3 1 2 2 1 2 2 3 4 4 9 8 7 7 7 7 8 7 6 5
6 8 9 8 7 6 6 6 6 5 6 6 5 4 5 4 5 5 4 5 5 5 4 7 3 2 5 3 1 3 4 2 3 8 8 8 8 8 8 8 8 8 7
8 7 7 8 8 7 7 5 5 5 5 5 6 6 6 6 7 5 6 5 5 5 5 5 4 1 3 0 2 2 4 3 2 7 8 7 10 10 8 7 7 9 10
9 8 7 7 7 7 6 6 6 6 6 6 7 7 7 8 7 7 7 7 6 6 6 5 4 3 3 1 1 1 4 2 2 1 4 4 5 7 8 8 8 10 12
7 6 6 5 6 6 5 6 6 6 7 6 7 7 7 8 12 10 5 6 7 6 5 5 5 4 4 2 2 1 2 2 3 0 2 2 0 1 3 8 9 11 13
7 7 6 7 7 5 11 14 10 6 6 7 7 7 7 8 12 16 17 16 11 8 7 5 6 8 9 6 3 2 1 2 2 1 2 3 2 3 3 3 10 11 13
6 6 6 6 5 5 13 13 14 7 7 6 7 7 6 6 8 8 12 16 17 18 14 7 8 7 3 4 4 2 3 2 3 2 2 3 0 3 3 4 13 14 14
5 5 5 6 5 5 13 14 15 7 6 8 8 8 7 6 7 7 6 6 6 5 6 7 9 8 5 4 5 4 4 2 2 3 3 4 1 3 3 3 8 9 10
4 4 4 5 6 6 13 14 12 5 6 6 7 8 8 8 11 14 7 8 7 7 8 14 16 16 16 16 11 3 3 4 4 3 2 2 1 3 2 3 2 6 9
3 3 5 5 6 5 10 12 11 5 7 5 6 7 13 10 14 17 9 7 9 7 7 7 4 10 12 10 17 10 5 6 6 3 3 4 1 0 4 2 3 3 3
Wind_Direction
154 140 139 139 138 127 109 89 71 60 53 40 41 32 17 7 3 3 342 339 344 343 343 338 334 350 331 331 43 358 95 73 55 42 31 27 30 43 47 56 49 44 59
151 153 150 142 122 106 94 99 101 87 67 42 26 18 4 353 346 356 339 339 342 352 347 352 28 29 34 33 347 345 356 34 64 35 25 20 24 20 26 22 25 29 30
163 157 156 147 140 125 111 94 67 59 46 14 13 360 346 338 333 336 336 318 335 356 7 28 36 33 27 43 39 52 44 50 62 50 12 12 19 19 19 20 13 12 20
165 157 154 159 146 125 122 98 64 57 54 36 335 317 312 316 317 312 321 312 322 28 8 37 37 27 10 16 31 37 47 65 67 55 11 2 355 345 4 19 7 358 7
163 154 162 157 151 136 120 138 95 90 34 338 314 312 323 315 301 306 312 304 290 93 67 49 49 34 22 17 9 9 38 58 63 51 16 343 332 328 328 328 329 338 342
162 160 159 155 148 136 135 131 127 107 131 340 318 319 333 350 351 302 288 335 113 109 90 70 48 19 32 29 16 34 45 52 58 37 350 327 313 306 301 293 288 282 291
165 161 157 150 155 158 167 163 136 117 23 14 9 3 5 27 62 42 15 25 99 100 88 72 66 40 15 28 8 56 51 42 37 17 352 335 321 308 299 289 279 273 276
170 167 162 166 161 145 154 159 148 123 111 48 112 90 2 339 15 22 52 70 67 49 64 64 67 59 37 8 329 51 40 10 335 311 315 310 306 309 305 293 287 290 282
170 166 166 158 159 154 168 171 164 157 170 95 120 144 125 221 315 344 25 70 94 61 40 63 68 68 62 46 45 55 47 359 341 323 309 304 302 298 303 299 300 294 292
171 167 161 157 157 154 167 171 167 156 140 184 68 133 138 135 174 314 346 5 47 176 215 69 113 100 63 47 54 43 9 346 332 315 304 303 299 299 296 308 313 301 292
168 165 160 156 159 159 166 169 156 166 167 161 166 149 144 102 102 155 258 301 2 248 254 215 171 136 122 94 39 358 1 334 332 310 294 294 290 294 295 288 298 309 324
167 166 157 157 156 158 168 174 168 167 170 165 172 173 183 158 184 172 223 243 262 297 263 200 188 162 148 153 188 53 347 325 326 313 296 293 289 287 286 285 287 293 311
167 178 162 161 162 162 166 158 161 170 167 169 173 193 199 183 146 133 124 179 250 299 306 266 219 170 171 156 222 116 332 309 307 307 295 287 285 278 279 281 289 291 301
176 165 163 160 158 159 158 159 160 163 165 168 174 168 179 201 150 150 153 138 334 301 312 262 26 250 91 148 194 57 308 296 296 294 291 285 278 278 272 271 274 285 279
156 160 161 159 156 155 156 154 158 167 158 161 171 172 162 189 166 159 147 145 155 205 262 316 19 331 191 154 256 303 300 288 290 293 290 281 275 273 274 268 262 257 256
150 154 155 152 152 152 152 153 153 164 161 172 168 169 174 160 173 159 157 170 205 182 240 190 117 168 221 244 247 295 272 281 286 292 284 282 274 265 264 264 265 260 251
145 149 153 148 153 154 157 157 164 166 174 177 168 172 184 177 183 185 171 176 194 212 250 260 249 278 268 286 291 252 264 261 265 270 268 271 258 256 263 257 260 260 248
129 142 142 144 148 152 152 160 164 167 172 182 187 177 199 193 204 197 194 206 212 218 239 249 235 224 236 218 319 308 281 242 240 258 252 270 253 245 248 244 244 247 249
118 119 131 144 156 163 165 167 171 183 189 193 194 199 202 202 214 206 205 206 205 217 227 245 254 197 261 256 311 303 282 278 226 261 266 279 270 243 236 233 248 247 239
133 137 147 150 156 162 172 171 181 191 194 196 201 206 205 208 210 202 206 209 209 215 224 230 239 248 225 162 197 318 300 297 303 317 286 271 260 255 229 236 281 271 244
133 132 138 149 160 170 175 181 185 193 200 203 208 211 212 212 217 214 210 204 204 214 216 222 239 235 236 213 231 280 251 300 297 291 310 300 337 221 255 273 281 266 245
134 142 157 169 175 183 199 210 196 198 198 205 214 219 215 216 231 233 231 220 214 207 218 211 244 243 246 237 177 208 193 21 320 336 29 295 147 255 254 245 251 247 238
134 153 159 163 180 175 210 220 225 193 201 202 212 217 220 216 214 223 244 243 230 223 220 209 230 222 203 207 172 210 209 187 221 279 75 274 255 261 237 261 271 253 231
148 156 170 175 176 193 221 231 230 225 202 204 207 209 217 215 206 209 217 229 242 239 247 224 215 220 209 214 194 190 191 206 312 279 148 262 276 250 283 249 259 234 233
163 163 175 182 198 211 225 232 232 223 223 215 204 208 210 210 212 222 214 223 233 228 236 249 249 240 231 239 233 145 233 258 286 268 235 151 287 290 293 300 313 268 257
154 168 180 186 193 203 221 226 225 209 222 216 210 214 216 217 223 229 226 210 233 227 211 221 242 259 267 258 250 218 194 218 245 330 258 174 287 83 328 301 317 331 323